KLM777 EDDM-EDDF

Flight info

Callsign KLM777
Flight time N/A
Altitude 24000
Route GIVMI1N/26R EDDM/26R GIVMI Y101 ERNAS T161 DEBHI DEBHI1B
Aircraft A359/H-SDE2E3GHIJ3J4J5LM1ORWXY/LB1D1

Departure

Time N/A
Airport Munich Airport (EDDM)

Arrival

Time 2026-05-05 10:32
Airport Frankfurt Main Airport (EDDF)
Time Latitude Longitude Altitude Speed Heading
2026-05-05 10:02 48.84398 11.21846 18848 ft 403 kts 322°
2026-05-05 10:02 48.86604 11.19222 18849 ft 402 kts 319°
2026-05-05 10:03 48.88723 11.16462 18850 ft 401 kts 316°
2026-05-05 10:03 48.90793 11.13618 18850 ft 401 kts 315°
2026-05-05 10:03 48.92839 11.10734 18855 ft 401 kts 315°
2026-05-05 10:03 48.94877 11.07837 18843 ft 401 kts 315°
2026-05-05 10:04 48.96917 11.04940 18851 ft 401 kts 315°
2026-05-05 10:04 48.98969 11.02038 18846 ft 401 kts 315°
2026-05-05 10:04 49.00988 10.99188 18851 ft 401 kts 315°
2026-05-05 10:04 49.03037 10.96302 18850 ft 401 kts 315°
2026-05-05 10:05 49.05092 10.93413 18853 ft 401 kts 315°
2026-05-05 10:05 49.07140 10.90530 18858 ft 401 kts 315°
2026-05-05 10:05 49.09192 10.87641 18859 ft 401 kts 315°
2026-05-05 10:05 49.11244 10.84742 18858 ft 401 kts 315°
2026-05-05 10:06 49.13286 10.81854 18862 ft 401 kts 315°
2026-05-05 10:06 49.15333 10.78956 18862 ft 401 kts 315°
2026-05-05 10:06 49.17355 10.76094 18850 ft 400 kts 315°
2026-05-05 10:06 49.19393 10.73189 18864 ft 400 kts 314°
2026-05-05 10:07 49.21361 10.70157 18866 ft 400 kts 312°
2026-05-05 10:07 49.23284 10.67093 18863 ft 399 kts 311°
2026-05-05 10:07 49.25210 10.64025 18853 ft 399 kts 311°
2026-05-05 10:07 49.27140 10.60961 18854 ft 399 kts 311°
2026-05-05 10:08 49.29049 10.57935 18855 ft 399 kts 312°
2026-05-05 10:08 49.30984 10.54872 18871 ft 399 kts 311°
2026-05-05 10:08 49.32920 10.51807 18857 ft 399 kts 311°
2026-05-05 10:08 49.34852 10.48744 18859 ft 399 kts 311°
2026-05-05 10:09 49.36660 10.45515 18845 ft 398 kts 304°
2026-05-05 10:09 49.38263 10.42122 18841 ft 397 kts 302°
2026-05-05 10:09 49.39847 10.38647 18844 ft 396 kts 302°
2026-05-05 10:09 49.41424 10.35172 18843 ft 396 kts 302°
2026-05-05 10:10 49.43001 10.31701 18840 ft 396 kts 302°
2026-05-05 10:10 49.44580 10.28227 18839 ft 396 kts 302°
2026-05-05 10:10 49.46161 10.24747 18841 ft 396 kts 302°
2026-05-05 10:10 49.47737 10.21274 18844 ft 396 kts 302°
2026-05-05 10:11 49.49316 10.17792 18844 ft 396 kts 302°
2026-05-05 10:11 49.50891 10.14316 18846 ft 396 kts 302°
2026-05-05 10:11 49.52466 10.10835 18855 ft 396 kts 302°
2026-05-05 10:11 49.54042 10.07348 18858 ft 396 kts 302°
2026-05-05 10:12 49.55612 10.03866 18859 ft 396 kts 302°
2026-05-05 10:12 49.57186 10.00375 18857 ft 396 kts 302°
2026-05-05 10:12 49.58735 9.96932 18858 ft 396 kts 302°
2026-05-05 10:12 49.60304 9.93440 18860 ft 396 kts 302°
2026-05-05 10:13 49.61875 9.89939 18859 ft 396 kts 302°
2026-05-05 10:13 49.63439 9.86445 18863 ft 396 kts 302°
2026-05-05 10:13 49.65005 9.82944 18860 ft 396 kts 302°
2026-05-05 10:13 49.66571 9.79442 18861 ft 396 kts 302°
2026-05-05 10:14 49.68136 9.75939 18864 ft 396 kts 302°
2026-05-05 10:14 49.69696 9.72442 18864 ft 396 kts 302°
2026-05-05 10:14 49.71258 9.68934 18861 ft 396 kts 302°
2026-05-05 10:14 49.72818 9.65424 18862 ft 395 kts 302°
2026-05-05 10:15 49.74374 9.61919 18868 ft 395 kts 302°
2026-05-05 10:15 49.75930 9.58409 18866 ft 395 kts 302°
2026-05-05 10:15 49.77462 9.54953 18625 ft 390 kts 302°
2026-05-05 10:15 49.78999 9.51483 17737 ft 395 kts 302°
2026-05-05 10:16 49.80564 9.47926 16766 ft 401 kts 302°
2026-05-05 10:16 49.82128 9.44366 16086 ft 399 kts 302°
2026-05-05 10:16 49.83683 9.40830 15498 ft 394 kts 302°
2026-05-05 10:16 49.85211 9.37344 14893 ft 389 kts 302°
2026-05-05 10:17 49.86474 9.33681 14284 ft 382 kts 289°
2026-05-05 10:17 49.87312 9.29807 13712 ft 376 kts 285°
2026-05-05 10:17 49.88048 9.25939 13039 ft 372 kts 285°
2026-05-05 10:17 49.88759 9.22131 12300 ft 371 kts 285°
2026-05-05 10:18 49.89471 9.18330 11898 ft 361 kts 285°
2026-05-05 10:18 49.90164 9.14669 11681 ft 346 kts 285°
2026-05-05 10:18 49.90835 9.11147 11481 ft 332 kts 285°
2026-05-05 10:18 49.91478 9.07781 11290 ft 319 kts 285°
2026-05-05 10:19 49.92095 9.04538 11126 ft 307 kts 285°
2026-05-05 10:19 49.92688 9.01417 10918 ft 297 kts 285°
2026-05-05 10:19 49.93265 8.98355 10560 ft 294 kts 285°
2026-05-05 10:19 49.93954 8.95373 10155 ft 294 kts 296°
2026-05-05 10:20 49.95199 8.92922 9717 ft 296 kts 321°
2026-05-05 10:20 49.97041 8.91555 9276 ft 296 kts 348°
2026-05-05 10:20 49.99084 8.91356 8853 ft 294 kts
2026-05-05 10:20 50.01099 8.91786 8408 ft 292 kts 17°
2026-05-05 10:21 50.02851 8.93313 7973 ft 289 kts 44°
2026-05-05 10:21 50.03978 8.95856 7557 ft 285 kts 68°
2026-05-05 10:21 50.04679 8.98724 7157 ft 283 kts 73°
2026-05-05 10:21 50.05306 9.01621 6750 ft 282 kts 73°
2026-05-05 10:22 50.05938 9.04505 6369 ft 280 kts 73°
2026-05-05 10:22 50.06452 9.07407 5962 ft 277 kts 84°
2026-05-05 10:22 50.06766 9.10342 5524 ft 276 kts 75°
2026-05-05 10:22 50.07685 9.12899 5080 ft 276 kts 50°
2026-05-05 10:23 50.09220 9.14662 4675 ft 276 kts 25°
2026-05-05 10:23 50.11073 9.15248 4391 ft 269 kts 358°
2026-05-05 10:23 50.12803 9.14557 4259 ft 251 kts 334°
2026-05-05 10:23 50.14096 9.12807 4020 ft 248 kts 305°
2026-05-05 10:24 50.14802 9.10346 3996 ft 249 kts 288°
2026-05-05 10:24 50.15130 9.07757 4002 ft 239 kts 272°
2026-05-05 10:24 50.14981 9.05211 3998 ft 234 kts 259°
2026-05-05 10:24 50.14538 9.02781 3993 ft 233 kts 251°
2026-05-05 10:25 50.13985 9.00418 3993 ft 229 kts 250°
2026-05-05 10:25 50.13451 8.98142 4001 ft 219 kts 250°
2026-05-05 10:25 50.12926 8.95924 3997 ft 217 kts 250°
2026-05-05 10:25 50.12399 8.93716 3993 ft 217 kts 249°
2026-05-05 10:26 50.11874 8.91539 3992 ft 217 kts 249°
2026-05-05 10:26 50.11343 8.89335 3996 ft 216 kts 250°
2026-05-05 10:26 50.10815 8.87138 3995 ft 218 kts 250°
2026-05-05 10:26 50.10281 8.84915 3921 ft 218 kts 249°
2026-05-05 10:27 50.09744 8.82728 3668 ft 209 kts 249°
2026-05-05 10:27 50.09258 8.80699 3394 ft 195 kts 250°
2026-05-05 10:27 50.08807 8.78781 3107 ft 178 kts 251°
2026-05-05 10:27 50.08395 8.77047 2863 ft 167 kts 250°
2026-05-05 10:28 50.08003 8.75404 2652 ft 157 kts 251°
2026-05-05 10:28 50.07632 8.73849 2442 ft 148 kts 250°
2026-05-05 10:28 50.07285 8.72391 2244 ft 138 kts 251°
2026-05-05 10:28 50.06958 8.71019 2075 ft 133 kts 251°
2026-05-05 10:29 50.06640 8.69685 1892 ft 133 kts 251°
2026-05-05 10:29 50.06318 8.68333 1720 ft 133 kts 251°
2026-05-05 10:29 50.05994 8.66977 1537 ft 133 kts 251°
2026-05-05 10:29 50.05671 8.65623 1353 ft 133 kts 251°
2026-05-05 10:30 50.05349 8.64272 1164 ft 133 kts 251°
2026-05-05 10:30 50.05028 8.62925 993 ft 133 kts 251°
2026-05-05 10:30 50.04705 8.61573 806 ft 133 kts 251°
2026-05-05 10:30 50.04389 8.60248 635 ft 132 kts 251°
2026-05-05 10:31 50.04070 8.58911 456 ft 132 kts 250°
2026-05-05 10:31 50.03749 8.57579 361 ft 124 kts 249°
2026-05-05 10:31 50.03466 8.56387 358 ft 107 kts 250°
2026-05-05 10:31 50.03310 8.55451 356 ft 69 kts 281°
2026-05-05 10:32 50.03377 8.55168 360 ft 15 kts 324°
2026-05-05 10:32 50.03450 8.55296 360 ft 11 kts 69°
2026-05-05 10:32 50.03480 8.55421 359 ft 14 kts 71°
2026-05-05 10:33 50.03512 8.55583 355 ft 17 kts 72°
2026-05-05 10:33 50.03552 8.55777 359 ft 20 kts 72°
2026-05-05 10:33 50.03608 8.55979 361 ft 21 kts 59°
2026-05-05 10:33 50.03665 8.56198 361 ft 23 kts 69°
2026-05-05 10:34 50.03724 8.56439 360 ft 25 kts 69°
2026-05-05 10:34 50.03787 8.56698 359 ft 26 kts 69°
2026-05-05 10:34 50.03854 8.56974 358 ft 28 kts 69°
2026-05-05 10:34 50.03924 8.57263 361 ft 29 kts 69°
2026-05-05 10:35 50.03988 8.57534 357 ft 21 kts 71°
2026-05-05 10:35 50.04020 8.57679 356 ft 8 kts 71°
2026-05-05 10:35 50.04046 8.57801 356 ft 14 kts 71°
2026-05-05 10:35 50.04081 8.57962 355 ft 18 kts 70°
2026-05-05 10:36 50.04132 8.58155 356 ft 21 kts 68°
2026-05-05 10:36 50.04192 8.58380 356 ft 24 kts 67°
2026-05-05 10:36 50.04262 8.58638 360 ft 27 kts 67°
2026-05-05 10:36 50.04325 8.58926 358 ft 29 kts 75°
2026-05-05 10:37 50.04384 8.59247 355 ft 32 kts 73°
2026-05-05 10:37 50.04500 8.59462 360 ft 21 kts 12°
2026-05-05 10:37 50.04591 8.59476 360 ft 8 kts 358°
2026-05-05 10:37 50.04661 8.59456 357 ft 12 kts 347°
2026-05-05 10:38 50.04756 8.59421 359 ft 16 kts 347°
2026-05-05 10:38 50.04879 8.59377 356 ft 20 kts 347°
2026-05-05 10:38 50.04981 8.59341 360 ft 9 kts 347°
2026-05-05 10:38 50.04999 8.59334 355 ft 1 kts 347°
2026-05-05 10:39 50.05017 8.59327 359 ft 6 kts 348°
2026-05-05 10:39 50.05060 8.59302 361 ft 6 kts 326°
2026-05-05 10:39 50.05066 8.59259 359 ft 6 kts 274°
2026-05-05 10:39 50.05065 8.59167 352 ft 9 kts 264°
2026-05-05 10:40 50.05044 8.59062 360 ft 12 kts 253°
2026-05-05 10:40 50.05047 8.59022 359 ft 1 kts 302°
2026-05-05 10:40 50.05053 8.58992 356 ft 5 kts 287°
2026-05-05 10:40 50.05047 8.58958 360 ft 5 kts 247°
2026-05-05 10:41 50.05042 8.58907 356 ft 5 kts 274°
2026-05-05 10:41 50.05056 8.58870 358 ft 2 kts 325°
2026-05-05 10:41 50.05083 8.58852 358 ft 0 kts 339°
2026-05-05 10:41 50.05082 8.58853 357 ft 2 kts 338°
2026-05-05 10:42 50.05083 8.58852 358 ft 0 kts 339°